User: anonymous   Login
Location: Unspecified
(0.0000°N, 0.0000°E)
Time: 05:58:38
(UTC+00:00)
Language:

PLEIADES HR1 - Orbit

View from above orbital plane
View from above orbital plane
View from above satellite
View from above satellite

Ground track
Ground track

The orbit data is extracted from the following two-line orbital elements,

1 38012U 11076F   15243.78679101  .00000230  00000-0  59247-4 0  9999
2 38012  98.1900 317.4444 0001313 108.6838 251.4494 14.58564201197329
Epoch (UTC): 31 August 2015 18:52:58
Eccentricity: 0.0001313
inclination: 98.1900°
perigee height: 697 km
apogee height: 699 km
right ascension of ascending node: 317.4444°
argument of perigee: 108.6838°
revolutions per day: 14.58564201
mean anomaly at epoch: 251.4494°
orbit number at epoch: 19732

The dashed part of the orbit path shows where the satellite is in the earth's shadow,  

DLR